Terug naar catalogus

DELTA 1 DEB

ActiefSSO
NORAD 9320·DEBRIS·🇺🇸 United States

Gelanceerd Jan 22, 1975 vanaf Vandenberg Space Force Base

Loading…

Volgende Passages (komende 24 uur)

TLE

VersSource: Space-Track

Epoch: Sep 14, 2026, 03:57 UTC

1 09320U 75004EX  26257.16481404  .00000313  00000-0  63923-4 0  9994
2 09320  98.4392 327.8201 0052013 227.4126 132.2683 14.67331028583083

Volg DELTA 1 DEB in realtime met AllMySat

Download on the App Store